Terminal Aerodrome Forecast
Issued by NWS

Home | Current Version | Previous Version | Graphics & Text | Print | Product List | Glossary On
Versions: 1 2 3 4 5 6 7 8 9 10 11 12 13
000
FTUS43 KMPX 251349 AAA
TAFRWF
TAF AMD
KRWF 251349Z 2514/2612 10012G20KT P6SM SCT015 OVC035
     FM252000 09010G16KT P6SM SCT030 OVC050
     FM260400 08005KT P6SM SKC=

USA.gov is the U.S. government's official web portal to all federal, state and local government web resources and services.